(233985) = 1995 SX30 = 2007 TU215

Discovered at Kitt Peak on 1995-09-20 by Spacewatch.

Orbit

Orbit type: Main Belt

Note: WebGL enabled browser required.

epoch2023-09-13.0
epoch JD2460200.5
perihelion date2023-07-23.86280
perihelion JD2460149.36280
argument of perihelion (°)322.65814
ascending node (°)355.95103
inclination (°)4.16737
eccentricity0.1147063
perihelion distance (AU)2.7990970
Tisserand w.r.t. Jupiter3.2
ΔV w.r.t. Earth (km/sec)10.5
semimajor axis (AU)3.1617722
mean anomaly (°)8.96489
mean daily motion (°/day)0.17531050
aphelion distance (AU)3.524
period (years)5.62
P-vector [x]0.75033017
P-vector [y]-0.58763001
P-vector [z]-0.30281283
Q-vector [x]0.66104335
Q-vector [y]0.66340520
Q-vector [z]0.35059268
absolute magnitude16.01
phase slope0.15
uncertainty0
referenceMPO 778651
observations used286
oppositions15
arc length (days)10251
first opposition used1995
last opposition used2023
residual rms (arc-secs)0.75
perturbers coarse indicatorM-v
perturbers precise indicator003Ek
first observation date used1995-09-20.0
last observation date used2023-10-14.0
computer nameMPCLINUX
JD of orbit computation2456670.664262
perihelion JD uncertainty (days)1.8407E-04
argument of perihelion uncertainty (°)7.2226E-05
ascending node uncertainty (°)6.5277E-05
inclination uncertainty (°)7.3559E-06
eccentricity uncertainty 7.7057E-08
perihelion distance uncertainty (AU)2.3902E-07
Minimum Orbit Intersection Distances (in AU)
for orbit epoch: 2460200.5, reference: E2023-TP1
Mercury2.37271
Venus2.07094
Earth1.78698
Mars1.40865
Jupiter1.76478
Saturn5.62119
Uranus14.9512
Neptune26.6816

Observations

291 total observations over interval: 1995 09 20.19324 – 2023 10 14.267903
These data are available for download (format description).

Date (UT) J2000 RA J2000 Dec Magn Location Ref
1995 09 20.19324 22 43 35.30 -09 26 19.8   691 – Steward Observatory, Kitt Peak-Spacewatch MPC 25846
1995 09 20.21509 22 43 34.39 -09 26 23.2   691 – Steward Observatory, Kitt Peak-Spacewatch MPC 25846
1995 09 20.23616 22 43 33.51 -09 26 26.3 20.4 V 691 – Steward Observatory, Kitt Peak-Spacewatch MPC 25846
1995 09 22.26296 22 42 12.75 -09 31 00.0 20.3 V 691 – Steward Observatory, Kitt Peak-Spacewatch MPS 32123
1995 09 22.26920 22 42 12.49 -09 31 01.1 20.2 V 691 – Steward Observatory, Kitt Peak-Spacewatch MPS 32123
1995 09 22.27821 22 42 12.12 -09 31 01.9 20.4 V 691 – Steward Observatory, Kitt Peak-Spacewatch MPS 32123
1995 10 01.20032 22 37 04.56 -09 46 11.0 20.4 V 691 – Steward Observatory, Kitt Peak-Spacewatch MPC 25846
1995 10 01.22332 22 37 03.86 -09 46 12.5   691 – Steward Observatory, Kitt Peak-Spacewatch MPC 25846
1995 10 01.24534 22 37 03.19 -09 46 14.4   691 – Steward Observatory, Kitt Peak-Spacewatch MPC 25846
2001 09 19.46207 01 20 17.56 +10 25 55.4 20.8 V 291 – LPL/Spacewatch II MPS 223292
2001 09 19.48305 01 20 16.70 +10 25 52.7 20.7 V 291 – LPL/Spacewatch II MPS 223292
2001 09 19.50301 01 20 15.90 +10 25 50.3 20.6 V 291 – LPL/Spacewatch II MPS 223292
2001 10 19.26522 00 57 48.35 +08 50 29.7 20.3   644 – Palomar Mountain/NEAT MPS 223292
2001 10 19.28572 00 57 47.38 +08 50 25.0 20.1   644 – Palomar Mountain/NEAT MPS 223292
2001 10 19.30613 00 57 46.43 +08 50 20.9 19.9   644 – Palomar Mountain/NEAT MPS 223292
2004 02 14.44611 10 26 17.78 +12 25 12.5 21.2 V 691 – Steward Observatory, Kitt Peak-Spacewatch MPS 223292
2004 02 14.47334 10 26 16.57 +12 25 18.0 21.4 V 691 – Steward Observatory, Kitt Peak-Spacewatch MPS 223292
2004 02 14.50052 10 26 15.31 +12 25 24.0 21.6 V 691 – Steward Observatory, Kitt Peak-Spacewatch MPS 223292
2007 10 07.38053 03 22 46.52 +22 44 07.2   691 – Steward Observatory, Kitt Peak-Spacewatch MPS 223685
2007 10 07.39817 03 22 46.01 +22 44 07.4   691 – Steward Observatory, Kitt Peak-Spacewatch MPS 223685
2007 10 07.41582 03 22 45.49 +22 44 07.4   691 – Steward Observatory, Kitt Peak-Spacewatch MPS 223685
2007 10 11.39644 03 20 48.14 +22 43 43.8 21.0 V 691 – Steward Observatory, Kitt Peak-Spacewatch MPS 223685
2007 10 11.41758 03 20 47.44 +22 43 43.3 21.4 V 691 – Steward Observatory, Kitt Peak-Spacewatch MPS 223685
2007 10 11.43528 03 20 46.79 +22 43 43.4 20.9 V 691 – Steward Observatory, Kitt Peak-Spacewatch MPS 223685
2007 10 15.37757 03 18 30.96 +22 41 46.1 20.4 V 691 – Steward Observatory, Kitt Peak-Spacewatch MPS 223292
2007 10 15.39875 03 18 30.13 +22 41 45.4 20.5 V 691 – Steward Observatory, Kitt Peak-Spacewatch MPS 223292
2007 10 15.41645 03 18 29.47 +22 41 44.7 20.6 V 691 – Steward Observatory, Kitt Peak-Spacewatch MPS 223292
2007 11 02.18879 03 05 12.48 +22 14 15.2 20.2 V 691 – Steward Observatory, Kitt Peak-Spacewatch MPS 223292
2007 11 02.20644 03 05 11.57 +22 14 12.8 20.5 V 691 – Steward Observatory, Kitt Peak-Spacewatch MPS 223292
2007 11 02.22410 03 05 10.66 +22 14 10.3 20.2 V 691 – Steward Observatory, Kitt Peak-Spacewatch MPS 223292
2007 11 19.07579 02 50 52.16 +21 26 00.7   691 – Steward Observatory, Kitt Peak-Spacewatch MPS 228162
2007 11 19.09344 02 50 51.26 +21 25 57.5   691 – Steward Observatory, Kitt Peak-Spacewatch MPS 228162
2007 11 19.11108 02 50 50.35 +21 25 53.5   691 – Steward Observatory, Kitt Peak-Spacewatch MPS 228162
2008 12 02.45006 08 20 14.78 +24 28 51.9 21.7 V G96 – Mt. Lemmon Survey MPS 267350
2008 12 02.46082 08 20 14.56 +24 28 53.6 20.9 V G96 – Mt. Lemmon Survey MPS 267350
2008 12 02.47163 08 20 14.46 +24 28 54.5 21.2 V G96 – Mt. Lemmon Survey MPS 267350
2008 12 02.48246 08 20 14.31 +24 28 55.0 21.0 V G96 – Mt. Lemmon Survey MPS 267350
2008 12 30.25749 08 05 59.74 +25 29 34.3 20.9 V G96 – Mt. Lemmon Survey MPS 269986
2008 12 30.26612 08 05 59.35 +25 29 35.6 20.9 V G96 – Mt. Lemmon Survey MPS 269986
2008 12 30.27265 08 05 59.02 +25 29 36.3 20.7 V G96 – Mt. Lemmon Survey MPS 269986
2008 12 30.27914 08 05 58.70 +25 29 37.5 21.2 V G96 – Mt. Lemmon Survey MPS 269986
2010 02 15.472587 12 02 59.844 +00 12 30.26 21.64 g F51 – Pan-STARRS 1, Haleakala MPS 319214
2010 02 15.480937 12 02 59.595 +00 12 31.20 21.67 g F51 – Pan-STARRS 1, Haleakala MPS 319214
2010 02 18.38063 12 01 33.60 +00 19 23.7 21.1 V G96 – Mt. Lemmon Survey MPS 312915
2010 02 18.38707 12 01 33.42 +00 19 24.4 21.1 V G96 – Mt. Lemmon Survey MPS 312915
2010 02 18.39370 12 01 33.20 +00 19 25.1 20.8 V G96 – Mt. Lemmon Survey MPS 312915
2010 02 18.40027 12 01 32.98 +00 19 27.0 20.3 V G96 – Mt. Lemmon Survey MPS 312915
2010 04 10.23934 11 26 52.18 +03 15 07.9 20.8 V G96 – Mt. Lemmon Survey MPS 323363
2010 04 10.24811 11 26 51.82 +03 15 09.0 21.8 V G96 – Mt. Lemmon Survey MPS 323363
2010 04 10.25690 11 26 51.57 +03 15 10.4 21.3 V G96 – Mt. Lemmon Survey MPS 323363
2010 04 10.26569 11 26 51.25 +03 15 12.1 20.9 V G96 – Mt. Lemmon Survey MPS 323363
2010 04 17.22921 11 23 16.08 +03 31 52.8 21.2 V G96 – Mt. Lemmon Survey MPS 324810
2010 04 17.23513 11 23 15.93 +03 31 53.5 21.1 V G96 – Mt. Lemmon Survey MPS 324810
2010 04 17.24104 11 23 15.79 +03 31 53.6 21.0 V G96 – Mt. Lemmon Survey MPS 324810
2010 04 17.24701 11 23 15.64 +03 31 54.3 20.7 V G96 – Mt. Lemmon Survey MPS 324810
2012 08 25.49561 23 50 20.018 -01 58 19.61 20.0 w F51 – Pan-STARRS 1, Haleakala MPS 430915
2012 08 25.50982 23 50 19.479 -01 58 21.85 20.0 w F51 – Pan-STARRS 1, Haleakala MPS 430915
2012 08 25.52405 23 50 18.949 -01 58 23.93 20.0 w F51 – Pan-STARRS 1, Haleakala MPS 430915
2012 08 25.53832 23 50 18.392 -01 58 26.17 20.0 w F51 – Pan-STARRS 1, Haleakala MPS 430916
2012 08 26.26149 23 49 52.09 -02 00 18.9 20.0 V 691 – Steward Observatory, Kitt Peak-Spacewatch MPS 430916
2012 08 26.28631 23 49 51.15 -02 00 23.4 20.2 V 691 – Steward Observatory, Kitt Peak-Spacewatch MPS 430916
2012 08 26.30420 23 49 50.45 -02 00 26.1 20.1 V 691 – Steward Observatory, Kitt Peak-Spacewatch MPS 430916
2012 09 15.37115 23 35 18.67 -03 04 47.4 19.4 V G96 – Mt. Lemmon Survey MPS 433141
2012 09 15.37632 23 35 18.42 -03 04 48.8 19.7 V G96 – Mt. Lemmon Survey MPS 433141
2012 09 15.38148 23 35 18.16 -03 04 49.4 19.6 V G96 – Mt. Lemmon Survey MPS 433141
2012 09 15.38669 23 35 17.91 -03 04 50.5 19.6 V G96 – Mt. Lemmon Survey MPS 433141
2012 09 25.21655 23 27 48.60 -03 37 47.4 20.1 V G96 – Mt. Lemmon Survey MPS 433983
2012 09 25.22257 23 27 48.31 -03 37 49.1 20.2 V G96 – Mt. Lemmon Survey MPS 433983
2012 09 25.22858 23 27 48.06 -03 37 50.0 20.3 V G96 – Mt. Lemmon Survey MPS 433983
2012 09 25.23459 23 27 47.77 -03 37 51.3 20.3 V G96 – Mt. Lemmon Survey MPS 433983
2012 10 22.22152 23 13 25.46 -04 31 20.4 20.7 V G96 – Mt. Lemmon Survey MPS 439254
2012 10 22.22722 23 13 25.39 -04 31 21.0 20.6 V G96 – Mt. Lemmon Survey MPS 439254
2012 10 22.23289 23 13 25.28 -04 31 21.1 21.0 V G96 – Mt. Lemmon Survey MPS 439254
2012 10 22.23860 23 13 25.21 -04 31 21.0 20.3 V G96 – Mt. Lemmon Survey MPS 439254
2012 11 17.12438 23 13 51.24 -04 01 36.8 21.6 V G96 – Mt. Lemmon Survey MPS 444695
2012 11 17.13425 23 13 51.42 -04 01 34.6 21.6 V G96 – Mt. Lemmon Survey MPS 444695
2012 11 17.14414 23 13 51.60 -04 01 33.4 21.4 V G96 – Mt. Lemmon Survey MPS 444695
2012 11 17.15411 23 13 51.74 -04 01 32.0 22.4 V G96 – Mt. Lemmon Survey MPS 444695
2013 12 07.39189 04 54 12.74 +28 24 52.2 20.7 V G96 – Mt. Lemmon Survey MPS 491865
2013 12 07.40256 04 54 12.16 +28 24 51.3 20.5 V G96 – Mt. Lemmon Survey MPS 491865
2013 12 07.40794 04 54 11.86 +28 24 51.0 20.1 V G96 – Mt. Lemmon Survey MPS 491865
2013 12 25.28782 04 38 50.913 +27 53 53.18 20.9 w F51 – Pan-STARRS 1, Haleakala MPS 493188
2013 12 25.30098 04 38 50.281 +27 53 51.51 20.8 w F51 – Pan-STARRS 1, Haleakala MPS 493188
2013 12 25.31418 04 38 49.682 +27 53 49.86 20.9 w F51 – Pan-STARRS 1, Haleakala MPS 493188
2013 12 25.32728 04 38 49.075 +27 53 48.26 21.0 w F51 – Pan-STARRS 1, Haleakala MPS 493188
2015 01 17.41702 09 40 46.752 +17 49 25.39 21.4 w F51 – Pan-STARRS 1, Haleakala MPS 566539
2015 01 17.42905 09 40 46.270 +17 49 27.65 21.3 w F51 – Pan-STARRS 1, Haleakala MPS 566539
2015 01 17.44108 09 40 45.813 +17 49 30.03 21.3 w F51 – Pan-STARRS 1, Haleakala MPS 566539
2015 01 17.45314 09 40 45.332 +17 49 32.23 21.3 w F51 – Pan-STARRS 1, Haleakala MPS 566539
